Weather History for Shaw AFB, SC

Change the Weather History Date:

Monday, December 2, 2013

  Actual Average Record
Temperature  
Mean Temperature 54 °F -  
Max Temperature 62 °F 60 °F 75 °F (1998)
Min Temperature 46 °F 36 °F 24 °F (2002)
Degree Days  
Heating Degree Days 11    
Growing Degree Days 4 (Base 50)    
Moisture  
Dew Point 43 °F    
Average Humidity 74    
Maximum Humidity 93    
Minimum Humidity 41    
Precipitation  
Precipitation 0.00 in - - ()
Sea Level Pressure  
Sea Level Pressure 29.91 in    
Wind  
Wind Speed 2 mph (NW)    
Max Wind Speed 6 mph    
Max Gust Speed -    
Visibility 10 miles    
Events      
Averages and records for this station are not official NWS values.
T = Trace of Precipitation, MM = Missing Value Source: NWS Daily Summary

Daily Weather History Graph

Daily Weather History Graph

Search for Another Location

Airport:

Trip Planner

Search our weather history database for the weather conditions in past years. The results will help you decide how hot, cold, wet, or windy it might be!

Date:

Astronomy

Dec. 02, 2013 Rise Set
Actual Time 7:10 AM EST 5:12 PM EST
Civil Twilight 6:42 AM EST 5:39 PM EST
Nautical Twilight 6:11 AM EST 6:10 PM EST
Astronomical Twilight 5:41 AM EST 6:41 PM EST
Moon 6:35 AM EST (12/2) 5:12 PM EST (12/2)
Length of Visible Light 10h 57m
Length of Day
10h 02m
Waning Crescent, 0% of the Moon is Illuminated
Dec 2
Waning Crescent
Dec 2
New
Dec 9
First Quarter
Dec 17
Full
Dec 25
Last Quarter

Hourly Weather History & Observations

Time (EST) Temp. Dew Point Humidity Pressure Visibility Wind Dir Wind Speed Gust Speed Precip Events Conditions
12:08 AM 46.4 °F 44.6 °F 93% 30.00 in 10.0 mi Calm Calm - N/A   Scattered Clouds
12:13 AM 46.4 °F 44.6 °F 93% 29.99 in 10.0 mi Calm Calm - N/A   Mostly Cloudy
12:18 AM 46.4 °F 44.6 °F 93% 29.99 in 10.0 mi Calm Calm - N/A   Mostly Cloudy
12:58 AM 46.2 °F 43.7 °F 91% 29.98 in 10.0 mi Calm Calm - N/A   Mostly Cloudy
1:48 AM 50.0 °F 46.4 °F 87% 29.96 in 10.0 mi West 2.3 mph - N/A   Overcast
1:58 AM 49.6 °F 46.4 °F 89% 29.96 in 10.0 mi WNW 2.3 mph - N/A   Overcast
2:03 AM 50.0 °F 46.4 °F 87% 29.95 in 10.0 mi WNW 2.3 mph - N/A   Overcast
2:58 AM 50.4 °F 45.1 °F 82% 29.96 in 10.0 mi WNW 4.6 mph - N/A   Overcast
3:43 AM 50.0 °F 44.6 °F 82% 29.94 in 7.0 mi NNW 2.3 mph - N/A   Overcast
3:53 AM 50.0 °F 44.6 °F 82% 29.94 in 10.0 mi NNW 2.3 mph - N/A   Overcast
3:58 AM 50.4 °F 44.6 °F 81% 29.95 in 10.0 mi NW 2.3 mph - N/A   Overcast
4:58 AM 50.0 °F 44.8 °F 82% 29.94 in 10.0 mi NW 3.5 mph - N/A   Overcast
5:53 AM 50.0 °F 44.6 °F 82% 29.93 in 10.0 mi NNW 2.3 mph - N/A   Mostly Cloudy
5:58 AM 48.9 °F 44.1 °F 83% 29.94 in 10.0 mi Calm Calm - N/A   Mostly Cloudy
6:58 AM 48.2 °F 43.5 °F 84% 29.94 in 10.0 mi NW 3.5 mph - N/A   Mostly Cloudy
7:13 AM 48.2 °F 42.8 °F 82% 29.93 in 10.0 mi NW 1.2 mph - N/A   Overcast
7:18 AM 48.2 °F 42.8 °F 82% 29.93 in 10.0 mi Calm Calm - N/A   Overcast
7:23 AM 48.2 °F 42.8 °F 82% 29.92 in 10.0 mi Variable 1.2 mph - N/A   Overcast
7:38 AM 48.2 °F 44.6 °F 87% 29.93 in 10.0 mi Variable 1.2 mph - N/A   Scattered Clouds
7:43 AM 48.2 °F 42.8 °F 82% 29.93 in 10.0 mi Calm Calm - N/A   Mostly Cloudy
7:48 AM 48.2 °F 42.8 °F 82% 29.92 in 10.0 mi Calm Calm - N/A   Scattered Clouds
7:58 AM 48.0 °F 43.3 °F 84% 29.94 in 10.0 mi NE 2.3 mph - N/A   Partly Cloudy
8:58 AM 48.9 °F 44.6 °F 85% 29.92 in 10.0 mi North 3.5 mph - N/A   Scattered Clouds
9:58 AM 52.5 °F 42.6 °F 69% 29.93 in 10.0 mi Variable 3.5 mph - N/A   Clear
10:55 AM 61.3 °F 39.4 °F 44% 30.12 in 10.0 mi Variable 3.5 mph - N/A   Clear
10:58 AM 55.6 °F 41.5 °F 59% 29.91 in 10.0 mi North 5.8 mph - 0.00 in   Clear
11:58 AM 58.8 °F 40.5 °F 51% 29.88 in 10.0 mi NW 4.6 mph - N/A   Clear
12:55 PM 61.3 °F 39.4 °F 44% 29.85 in 10.0 mi Variable 3.5 mph - N/A   Clear
1:58 PM 61.5 °F 39.6 °F 44% 29.84 in 10.0 mi WNW 4.6 mph - N/A   Overcast
2:58 PM 62.2 °F 37.9 °F 41% 29.82 in 10.0 mi NNE 5.8 mph - N/A   Overcast
3:10 PM 60.8 °F 37.4 °F 42% 29.81 in 10.0 mi Variable 2.3 mph - N/A   Light Drizzle
3:19 PM 62.6 °F 39.2 °F 42% 29.81 in 10.0 mi North 1.2 mph - N/A   Overcast
3:58 PM 62.1 °F 38.3 °F 41% 29.83 in 10.0 mi Calm Calm - 0.00 in   Clear
4:58 PM 59.4 °F 39.0 °F 47% 29.83 in 10.0 mi WNW 2.3 mph - N/A   Overcast
5:58 PM 53.4 °F 41.0 °F 63% 29.83 in 10.0 mi WSW 2.3 mph - N/A   Clear
6:58 PM 49.1 °F 41.9 °F 76% 29.85 in 10.0 mi SSW 2.3 mph - N/A   Clear
7:58 PM 46.9 °F 40.6 °F 79% 29.86 in 10.0 mi NW 1.2 mph - N/A   Clear
8:58 PM 46.6 °F 41.2 °F 81% 29.88 in 10.0 mi Calm Calm - N/A   Overcast
9:58 PM 47.5 °F 42.8 °F 84% 29.88 in 10.0 mi SE 1.2 mph - N/A   Overcast
10:58 PM 47.8 °F 43.2 °F 84% 29.88 in 10.0 mi Calm Calm - N/A   Overcast
11:58 PM 49.1 °F 45.0 °F 86% 29.88 in 10.0 mi Calm Calm - N/A   Overcast